station,date_time,longitude_east,latitude_north,depth,sw_sal,sw_sal_result_value_qualifier,sea_water_temperature,sea_water_temperature_result_value_qualifier,sea_water_pressure,sea_water_pressure_result_value_qualifier,KD_PAR,KD_PAR_result_value_qualifier
CH3-3,2017-01-28T23:00:00Z,-79.12,54.04,2,1.90,,-0.27,,, NC,, NC
CH3-3,2017-01-28T23:15:00Z,-79.12,54.04,2,1.94,,-0.27,,, NC,, NC
CH3-3,2017-01-28T23:30:00Z,-79.12,54.04,2,1.91,,-0.27,,, NC,, NC
CH3-3,2017-01-28T23:45:00Z,-79.12,54.04,2,1.87,,-0.27,,, NC,, NC
CH3-3,2017-01-29T00:00:00Z,-79.12,54.04,2,1.89,,-0.28,,, NC,, NC
CH3-3,2017-01-29T00:15:00Z,-79.12,54.04,2,1.94,,-0.27,,, NC,, NC
CH3-3,2017-01-29T00:30:00Z,-79.12,54.04,2,1.97,,-0.27,,, NC,, NC
CH3-3,2017-01-29T00:45:00Z,-79.12,54.04,2,2.00,,-0.28,,, NC,, NC
CH3-3,2017-01-29T01:00:00Z,-79.12,54.04,2,2.11,,-0.28,,, NC,, NC
CH3-3,2017-01-29T01:15:00Z,-79.12,54.04,2,2.17,,-0.28,,, NC,, NC
CH3-3,2017-01-29T01:30:00Z,-79.12,54.04,2,2.24,,-0.28,,, NC,, NC
CH3-3,2017-01-29T01:45:00Z,-79.12,54.04,2,2.08,,-0.28,,, NC,, NC
CH3-3,2017-01-29T02:00:00Z,-79.12,54.04,2,2.08,,-0.27,,, NC,, NC
CH3-3,2017-01-29T02:15:00Z,-79.12,54.04,2,2.06,,-0.27,,, NC,, NC
CH3-3,2017-01-29T02:30:00Z,-79.12,54.04,2,2.03,,-0.27,,, NC,, NC
CH3-3,2017-01-29T02:45:00Z,-79.12,54.04,2,2.08,,-0.28,,, NC,, NC
CH3-3,2017-01-29T03:00:00Z,-79.12,54.04,2,2.02,,-0.28,,, NC,, NC
CH3-3,2017-01-29T03:15:00Z,-79.12,54.04,2,2.00,,-0.28,,, NC,, NC
CH3-3,2017-01-29T03:30:00Z,-79.12,54.04,2,1.97,,-0.26,,, NC,, NC
CH3-3,2017-01-29T03:45:00Z,-79.12,54.04,2,1.97,,-0.28,,, NC,, NC
CH3-3,2017-01-29T04:00:00Z,-79.12,54.04,2,1.97,,-0.27,,, NC,, NC
CH3-3,2017-01-29T04:15:00Z,-79.12,54.04,2,1.95,,-0.27,,, NC,, NC
CH3-3,2017-01-29T04:30:00Z,-79.12,54.04,2,1.96,,-0.27,,, NC,, NC
CH3-3,2017-01-29T04:45:00Z,-79.12,54.04,2,1.96,,-0.27,,, NC,, NC
CH3-3,2017-01-29T05:00:00Z,-79.12,54.04,2,1.97,,-0.27,,, NC,, NC
CH3-3,2017-01-29T05:15:00Z,-79.12,54.04,2,1.97,,-0.27,,, NC,, NC
CH3-3,2017-01-29T05:30:00Z,-79.12,54.04,2,1.97,,-0.27,,, NC,, NC
CH3-3,2017-01-29T05:45:00Z,-79.12,54.04,2,1.97,,-0.27,,, NC,, NC
CH3-3,2017-01-29T06:00:00Z,-79.12,54.04,2,1.97,,-0.27,,, NC,, NC
CH3-3,2017-01-29T06:15:00Z,-79.12,54.04,2,1.98,,-0.27,,, NC,, NC
CH3-3,2017-01-29T06:30:00Z,-79.12,54.04,2,1.99,,-0.27,,, NC,, NC
CH3-3,2017-01-29T06:45:00Z,-79.12,54.04,2,1.99,,-0.27,,, NC,, NC
CH3-3,2017-01-29T07:00:00Z,-79.12,54.04,2,1.92,,-0.26,,, NC,, NC
CH3-3,2017-01-29T07:15:00Z,-79.12,54.04,2,1.93,,-0.27,,, NC,, NC
CH3-3,2017-01-29T07:30:00Z,-79.12,54.04,2,1.93,,-0.27,,, NC,, NC
CH3-3,2017-01-29T07:45:00Z,-79.12,54.04,2,1.94,,-0.27,,, NC,, NC
CH3-3,2017-01-29T08:00:00Z,-79.12,54.04,2,1.92,,-0.27,,, NC,, NC
CH3-3,2017-01-29T08:15:00Z,-79.12,54.04,2,1.92,,-0.27,,, NC,, NC
CH3-3,2017-01-29T08:30:00Z,-79.12,54.04,2,1.91,,-0.27,,, NC,, NC
CH3-3,2017-01-29T08:45:00Z,-79.12,54.04,2,1.93,,-0.27,,, NC,, NC
CH3-3,2017-01-29T09:00:00Z,-79.12,54.04,2,1.93,,-0.27,,, NC,, NC
CH3-3,2017-01-29T09:15:00Z,-79.12,54.04,2,1.93,,-0.27,,, NC,, NC
CH3-3,2017-01-29T09:30:00Z,-79.12,54.04,2,1.92,,-0.26,,, NC,, NC
CH3-3,2017-01-29T09:45:00Z,-79.12,54.04,2,1.93,,-0.27,,, NC,, NC
CH3-3,2017-01-29T10:00:00Z,-79.12,54.04,2,1.94,,-0.27,,, NC,, NC
CH3-3,2017-01-29T10:15:00Z,-79.12,54.04,2,1.94,,-0.26,,, NC,, NC
CH3-3,2017-01-29T10:30:00Z,-79.12,54.04,2,1.93,,-0.27,,, NC,, NC
CH3-3,2017-01-29T10:45:00Z,-79.12,54.04,2,1.96,,-0.27,,, NC,, NC
CH3-3,2017-01-29T11:00:00Z,-79.12,54.04,2,1.98,,-0.28,,, NC,, NC
CH3-3,2017-01-29T11:15:00Z,-79.12,54.04,2,1.99,,-0.27,,, NC,, NC
CH3-3,2017-01-29T11:30:00Z,-79.12,54.04,2,2.00,,-0.27,,, NC,, NC
CH3-3,2017-01-29T11:45:00Z,-79.12,54.04,2,2.00,,-0.27,,, NC,, NC
CH3-3,2017-01-29T12:00:00Z,-79.12,54.04,2,1.99,,-0.28,,, NC,, NC
CH3-3,2017-01-29T12:15:00Z,-79.12,54.04,2,1.95,,-0.27,,, NC,, NC
CH3-3,2017-01-29T12:30:00Z,-79.12,54.04,2,1.96,,-0.27,,, NC,, NC
CH3-3,2017-01-29T12:45:00Z,-79.12,54.04,2,1.99,,-0.27,,, NC,, NC
CH3-3,2017-01-29T13:00:00Z,-79.12,54.04,2,2.01,,-0.27,,, NC,, NC
CH3-3,2017-01-29T13:15:00Z,-79.12,54.04,2,2.22,,-0.27,,, NC,, NC
CH3-3,2017-01-29T13:30:00Z,-79.12,54.04,2,2.21,,-0.28,,, NC,, NC
CH3-3,2017-01-29T13:45:00Z,-79.12,54.04,2,2.19,,-0.28,,, NC,, NC
CH3-3,2017-01-29T14:00:00Z,-79.12,54.04,2,2.13,,-0.28,,, NC,, NC
CH3-3,2017-01-29T14:15:00Z,-79.12,54.04,2,2.04,,-0.27,,, NC,, NC
CH3-3,2017-01-29T14:30:00Z,-79.12,54.04,2,2.07,,-0.27,,, NC,, NC
CH3-3,2017-01-29T14:45:00Z,-79.12,54.04,2,2.07,,-0.28,,, NC,, NC
CH3-3,2017-01-29T15:00:00Z,-79.12,54.04,2,2.06,,-0.27,,, NC,, NC
CH3-3,2017-01-29T15:15:00Z,-79.12,54.04,2,2.09,,-0.27,,, NC,, NC
CH3-3,2017-01-29T15:30:00Z,-79.12,54.04,2,2.10,,-0.28,,, NC,, NC
CH3-3,2017-01-29T15:45:00Z,-79.12,54.04,2,2.07,,-0.27,,, NC,, NC
CH3-3,2017-01-29T16:00:00Z,-79.12,54.04,2,2.07,,-0.28,,, NC,, NC
CH3-3,2017-01-29T16:15:00Z,-79.12,54.04,2,2.07,,-0.28,,, NC,, NC
CH3-3,2017-01-29T16:30:00Z,-79.12,54.04,2,2.07,,-0.27,,, NC,, NC
CH3-3,2017-01-29T16:45:00Z,-79.12,54.04,2,2.06,,-0.28,,, NC,, NC
CH3-3,2017-01-29T17:00:00Z,-79.12,54.04,2,2.06,,-0.28,,, NC,, NC
CH3-3,2017-01-29T17:15:00Z,-79.12,54.04,2,2.04,,-0.28,,, NC,, NC
CH3-3,2017-01-29T17:30:00Z,-79.12,54.04,2,2.03,,-0.27,,, NC,, NC
CH3-3,2017-01-29T17:45:00Z,-79.12,54.04,2,2.03,,-0.27,,, NC,, NC
CH3-3,2017-01-29T18:00:00Z,-79.12,54.04,2,2.02,,-0.27,,, NC,, NC
CH3-3,2017-01-29T18:15:00Z,-79.12,54.04,2,1.96,,-0.27,,, NC,, NC
CH3-3,2017-01-29T18:30:00Z,-79.12,54.04,2,1.98,,-0.27,,, NC,, NC
CH3-3,2017-01-29T18:45:00Z,-79.12,54.04,2,1.97,,-0.27,,, NC,, NC
CH3-3,2017-01-29T19:00:00Z,-79.12,54.04,2,2.00,,-0.27,,, NC,, NC
CH3-3,2017-01-29T19:15:00Z,-79.12,54.04,2,2.04,,-0.27,,, NC,, NC
CH3-3,2017-01-29T19:30:00Z,-79.12,54.04,2,1.97,,-0.27,,, NC,, NC
CH3-3,2017-01-29T19:45:00Z,-79.12,54.04,2,1.97,,-0.27,,, NC,, NC
CH3-3,2017-01-29T20:00:00Z,-79.12,54.04,2,1.97,,-0.27,,, NC,, NC
CH3-3,2017-01-29T20:15:00Z,-79.12,54.04,2,1.95,,-0.27,,, NC,, NC
CH3-3,2017-01-29T20:30:00Z,-79.12,54.04,2,1.94,,-0.27,,, NC,, NC
CH3-3,2017-01-29T20:45:00Z,-79.12,54.04,2,1.96,,-0.27,,, NC,, NC
CH3-3,2017-01-29T21:00:00Z,-79.12,54.04,2,1.94,,-0.27,,, NC,, NC
CH3-3,2017-01-29T21:15:00Z,-79.12,54.04,2,1.93,,-0.27,,, NC,, NC
CH3-3,2017-01-29T21:30:00Z,-79.12,54.04,2,1.93,,-0.27,,, NC,, NC
CH3-3,2017-01-29T21:45:00Z,-79.12,54.04,2,1.94,,-0.27,,, NC,, NC
CH3-3,2017-01-29T22:00:00Z,-79.12,54.04,2,1.94,,-0.27,,, NC,, NC
CH3-3,2017-01-29T22:15:00Z,-79.12,54.04,2,1.95,,-0.27,,, NC,, NC
CH3-3,2017-01-29T22:30:00Z,-79.12,54.04,2,1.96,,-0.27,,, NC,, NC
CH3-3,2017-01-29T22:45:00Z,-79.12,54.04,2,1.97,,-0.27,,, NC,, NC
CH3-3,2017-01-29T23:00:00Z,-79.12,54.04,2,2.00,,-0.28,,, NC,, NC
CH3-3,2017-01-29T23:15:00Z,-79.12,54.04,2,2.02,,-0.28,,, NC,, NC
CH3-3,2017-01-29T23:30:00Z,-79.12,54.04,2,2.03,,-0.27,,, NC,, NC
CH3-3,2017-01-29T23:45:00Z,-79.12,54.04,2,2.04,,-0.27,,, NC,, NC
CH3-3,2017-01-30T00:00:00Z,-79.12,54.04,2,2.04,,-0.28,,, NC,, NC
CH3-3,2017-01-30T00:15:00Z,-79.12,54.04,2,2.01,,-0.27,,, NC,, NC
CH3-3,2017-01-30T00:30:00Z,-79.12,54.04,2,2.00,,-0.27,,, NC,, NC
CH3-3,2017-01-30T00:45:00Z,-79.12,54.04,2,2.00,,-0.28,,, NC,, NC
CH3-3,2017-01-30T01:00:00Z,-79.12,54.04,2,2.04,,-0.27,,, NC,, NC
CH3-3,2017-01-30T01:15:00Z,-79.12,54.04,2,2.05,,-0.28,,, NC,, NC
CH3-3,2017-01-30T01:30:00Z,-79.12,54.04,2,2.09,,-0.28,,, NC,, NC
CH3-3,2017-01-30T01:45:00Z,-79.12,54.04,2,2.28,,-0.28,,, NC,, NC
CH3-3,2017-01-30T02:00:00Z,-79.12,54.04,2,2.27,,-0.28,,, NC,, NC
CH3-3,2017-01-30T02:15:00Z,-79.12,54.04,2,2.24,,-0.28,,, NC,, NC
CH3-3,2017-01-30T02:30:00Z,-79.12,54.04,2,2.20,,-0.28,,, NC,, NC
CH3-3,2017-01-30T02:45:00Z,-79.12,54.04,2,2.17,,-0.28,,, NC,, NC
CH3-3,2017-01-30T03:00:00Z,-79.12,54.04,2,2.17,,-0.27,,, NC,, NC
CH3-3,2017-01-30T03:15:00Z,-79.12,54.04,2,2.18,,-0.28,,, NC,, NC
CH3-3,2017-01-30T03:30:00Z,-79.12,54.04,2,2.16,,-0.28,,, NC,, NC
CH3-3,2017-01-30T03:45:00Z,-79.12,54.04,2,2.13,,-0.28,,, NC,, NC
CH3-3,2017-01-30T04:00:00Z,-79.12,54.04,2,2.10,,-0.28,,, NC,, NC
CH3-3,2017-01-30T04:15:00Z,-79.12,54.04,2,2.11,,-0.30,,, NC,, NC
CH3-3,2017-01-30T04:30:00Z,-79.12,54.04,2,2.12,,-0.27,,, NC,, NC
CH3-3,2017-01-30T04:45:00Z,-79.12,54.04,2,2.12,,-0.28,,, NC,, NC
CH3-3,2017-01-30T05:00:00Z,-79.12,54.04,2,2.13,,-0.28,,, NC,, NC
CH3-3,2017-01-30T05:15:00Z,-79.12,54.04,2,2.13,,-0.28,,, NC,, NC
CH3-3,2017-01-30T05:30:00Z,-79.12,54.04,2,2.11,,-0.28,,, NC,, NC
CH3-3,2017-01-30T05:45:00Z,-79.12,54.04,2,2.11,,-0.27,,, NC,, NC
CH3-3,2017-01-30T06:00:00Z,-79.12,54.04,2,2.14,,-0.28,,, NC,, NC
CH3-3,2017-01-30T06:15:00Z,-79.12,54.04,2,2.03,,-0.28,,, NC,, NC
CH3-3,2017-01-30T06:30:00Z,-79.12,54.04,2,2.01,,-0.27,,, NC,, NC
CH3-3,2017-01-30T06:45:00Z,-79.12,54.04,2,2.13,,-0.28,,, NC,, NC
CH3-3,2017-01-30T07:00:00Z,-79.12,54.04,2,1.97,,-0.27,,, NC,, NC
CH3-3,2017-01-30T07:15:00Z,-79.12,54.04,2,1.99,,-0.28,,, NC,, NC
CH3-3,2017-01-30T07:30:00Z,-79.12,54.04,2,1.98,,-0.28,,, NC,, NC
CH3-3,2017-01-30T07:45:00Z,-79.12,54.04,2,1.98,,-0.28,,, NC,, NC
CH3-3,2017-01-30T08:00:00Z,-79.12,54.04,2,1.98,,-0.28,,, NC,, NC
CH3-3,2017-01-30T08:15:00Z,-79.12,54.04,2,1.98,,-0.28,,, NC,, NC
CH3-3,2017-01-30T08:30:00Z,-79.12,54.04,2,1.99,,-0.27,,, NC,, NC
CH3-3,2017-01-30T08:45:00Z,-79.12,54.04,2,1.99,,-0.28,,, NC,, NC
CH3-3,2017-01-30T09:00:00Z,-79.12,54.04,2,1.98,,-0.28,,, NC,, NC
CH3-3,2017-01-30T09:15:00Z,-79.12,54.04,2,2.00,,-0.28,,, NC,, NC
CH3-3,2017-01-30T09:30:00Z,-79.12,54.04,2,2.01,,-0.28,,, NC,, NC
CH3-3,2017-01-30T09:45:00Z,-79.12,54.04,2,2.02,,-0.27,,, NC,, NC
CH3-3,2017-01-30T10:00:00Z,-79.12,54.04,2,2.03,,-0.28,,, NC,, NC
CH3-3,2017-01-30T10:15:00Z,-79.12,54.04,2,1.98,,-0.27,,, NC,, NC
CH3-3,2017-01-30T10:30:00Z,-79.12,54.04,2,2.03,,-0.27,,, NC,, NC
CH3-3,2017-01-30T10:45:00Z,-79.12,54.04,2,2.00,,-0.28,,, NC,, NC
CH3-3,2017-01-30T11:00:00Z,-79.12,54.04,2,2.06,,-0.28,,, NC,, NC
CH3-3,2017-01-30T11:15:00Z,-79.12,54.04,2,2.08,,-0.28,,, NC,, NC
CH3-3,2017-01-30T11:30:00Z,-79.12,54.04,2,2.08,,-0.28,,, NC,, NC
CH3-3,2017-01-30T11:45:00Z,-79.12,54.04,2,2.05,,-0.27,,, NC,, NC
CH3-3,2017-01-30T12:00:00Z,-79.12,54.04,2,2.03,,-0.28,,, NC,, NC
CH3-3,2017-01-30T12:15:00Z,-79.12,54.04,2,2.04,,-0.30,,, NC,, NC
CH3-3,2017-01-30T12:30:00Z,-79.12,54.04,2,2.03,,-0.28,,, NC,, NC
CH3-3,2017-01-30T12:45:00Z,-79.12,54.04,2,1.98,,-0.28,,, NC,, NC
CH3-3,2017-01-30T13:00:00Z,-79.12,54.04,2,2.02,,-0.27,,, NC,, NC
CH3-3,2017-01-30T13:15:00Z,-79.12,54.04,2,2.05,,-0.28,,, NC,, NC
CH3-3,2017-01-30T13:30:00Z,-79.12,54.04,2,2.21,,-0.28,,, NC,, NC
CH3-3,2017-01-30T13:45:00Z,-79.12,54.04,2,2.16,,-0.28,,, NC,, NC
CH3-3,2017-01-30T14:00:00Z,-79.12,54.04,2,2.41,,-0.28,,, NC,, NC
CH3-3,2017-01-30T14:15:00Z,-79.12,54.04,2,2.21,,-0.27,,, NC,, NC
CH3-3,2017-01-30T14:30:00Z,-79.12,54.04,2,2.20,,-0.28,,, NC,, NC
CH3-3,2017-01-30T14:45:00Z,-79.12,54.04,2,2.24,,-0.28,,, NC,, NC
CH3-3,2017-01-30T15:00:00Z,-79.12,54.04,2,2.22,,-0.30,,, NC,, NC
CH3-3,2017-01-30T15:15:00Z,-79.12,54.04,2,2.22,,-0.27,,, NC,, NC
CH3-3,2017-01-30T15:30:00Z,-79.12,54.04,2,2.19,,-0.28,,, NC,, NC
CH3-3,2017-01-30T15:45:00Z,-79.12,54.04,2,2.18,,-0.28,,, NC,, NC
CH3-3,2017-01-30T16:00:00Z,-79.12,54.04,2,2.18,,-0.28,,, NC,, NC
CH3-3,2017-01-30T16:15:00Z,-79.12,54.04,2,2.17,,-0.28,,, NC,, NC
CH3-3,2017-01-30T16:30:00Z,-79.12,54.04,2,2.17,,-0.28,,, NC,, NC
CH3-3,2017-01-30T16:45:00Z,-79.12,54.04,2,2.16,,-0.30,,, NC,, NC
CH3-3,2017-01-30T17:00:00Z,-79.12,54.04,2,2.16,,-0.30,,, NC,, NC
CH3-3,2017-01-30T17:15:00Z,-79.12,54.04,2,2.11,,-0.28,,, NC,, NC
CH3-3,2017-01-30T17:30:00Z,-79.12,54.04,2,2.10,,-0.28,,, NC,, NC
CH3-3,2017-01-30T17:45:00Z,-79.12,54.04,2,2.09,,-0.28,,, NC,, NC
CH3-3,2017-01-30T18:00:00Z,-79.12,54.04,2,2.05,,-0.28,,, NC,, NC
CH3-3,2017-01-30T18:15:00Z,-79.12,54.04,2,2.04,,-0.28,,, NC,, NC
CH3-3,2017-01-30T18:30:00Z,-79.12,54.04,2,2.05,,-0.28,,, NC,, NC
CH3-3,2017-01-30T18:45:00Z,-79.12,54.04,2,2.05,,-0.28,,, NC,, NC
CH3-3,2017-01-30T19:00:00Z,-79.12,54.04,2,2.11,,-0.28,,, NC,, NC
CH3-3,2017-01-30T19:15:00Z,-79.12,54.04,2,2.13,,-0.28,,, NC,, NC
CH3-3,2017-01-30T19:30:00Z,-79.12,54.04,2,2.05,,-0.28,,, NC,, NC
CH3-3,2017-01-30T19:45:00Z,-79.12,54.04,2,2.14,,-0.28,,, NC,, NC
CH3-3,2017-01-30T20:00:00Z,-79.12,54.04,2,2.03,,-0.28,,, NC,, NC
CH3-3,2017-01-30T20:15:00Z,-79.12,54.04,2,2.04,,-0.28,,, NC,, NC
CH3-3,2017-01-30T20:30:00Z,-79.12,54.04,2,2.03,,-0.28,,, NC,, NC
CH3-3,2017-01-30T20:45:00Z,-79.12,54.04,2,2.02,,-0.28,,, NC,, NC
CH3-3,2017-01-30T21:00:00Z,-79.12,54.04,2,2.03,,-0.28,,, NC,, NC
CH3-3,2017-01-30T21:15:00Z,-79.12,54.04,2,2.03,,-0.28,,, NC,, NC
CH3-3,2017-01-30T21:30:00Z,-79.12,54.04,2,2.05,,-0.27,,, NC,, NC
CH3-3,2017-01-30T21:45:00Z,-79.12,54.04,2,2.05,,-0.28,,, NC,, NC
CH3-3,2017-01-30T22:00:00Z,-79.12,54.04,2,2.05,,-0.27,,, NC,, NC
CH3-3,2017-01-30T22:15:00Z,-79.12,54.04,2,2.05,,-0.30,,, NC,, NC
CH3-3,2017-01-30T22:30:00Z,-79.12,54.04,2,2.05,,-0.28,,, NC,, NC
CH3-3,2017-01-30T22:45:00Z,-79.12,54.04,2,2.07,,-0.28,,, NC,, NC
CH3-3,2017-01-30T23:00:00Z,-79.12,54.04,2,2.11,,-0.28,,, NC,, NC
CH3-3,2017-01-30T23:15:00Z,-79.12,54.04,2,2.12,,-0.28,,, NC,, NC
CH3-3,2017-01-30T23:30:00Z,-79.12,54.04,2,2.12,,-0.28,,, NC,, NC
CH3-3,2017-01-30T23:45:00Z,-79.12,54.04,2,2.07,,-0.28,,, NC,, NC
CH3-3,2017-01-31T00:00:00Z,-79.12,54.04,2,2.08,,-0.28,,, NC,, NC
CH3-3,2017-01-31T00:15:00Z,-79.12,54.04,2,2.09,,-0.28,,, NC,, NC
CH3-3,2017-01-31T00:30:00Z,-79.12,54.04,2,2.04,,-0.28,,, NC,, NC
CH3-3,2017-01-31T00:45:00Z,-79.12,54.04,2,2.03,,-0.28,,, NC,, NC
CH3-3,2017-01-31T01:00:00Z,-79.12,54.04,2,1.99,,-0.28,,, NC,, NC
CH3-3,2017-01-31T01:15:00Z,-79.12,54.04,2,2.10,,-0.28,,, NC,, NC
CH3-3,2017-01-31T01:30:00Z,-79.12,54.04,2,2.22,,-0.28,,, NC,, NC
CH3-3,2017-01-31T01:45:00Z,-79.12,54.04,2,2.28,,-0.30,,, NC,, NC
CH3-3,2017-01-31T02:00:00Z,-79.12,54.04,2,2.24,,-0.30,,, NC,, NC
CH3-3,2017-01-31T02:15:00Z,-79.12,54.04,2,2.24,,-0.30,,, NC,, NC
CH3-3,2017-01-31T02:30:00Z,-79.12,54.04,2,2.24,,-0.30,,, NC,, NC
CH3-3,2017-01-31T02:45:00Z,-79.12,54.04,2,2.25,,-0.30,,, NC,, NC
CH3-3,2017-01-31T03:00:00Z,-79.12,54.04,2,2.27,,-0.30,,, NC,, NC
CH3-3,2017-01-31T03:15:00Z,-79.12,54.04,2,2.28,,-0.30,,, NC,, NC
CH3-3,2017-01-31T03:30:00Z,-79.12,54.04,2,2.28,,-0.30,,, NC,, NC
CH3-3,2017-01-31T03:45:00Z,-79.12,54.04,2,2.15,,-0.28,,, NC,, NC
CH3-3,2017-01-31T04:00:00Z,-79.12,54.04,2,2.11,,-0.28,,, NC,, NC
CH3-3,2017-01-31T04:15:00Z,-79.12,54.04,2,2.13,,-0.28,,, NC,, NC
CH3-3,2017-01-31T04:30:00Z,-79.12,54.04,2,2.11,,-0.30,,, NC,, NC
CH3-3,2017-01-31T04:45:00Z,-79.12,54.04,2,2.10,,-0.30,,, NC,, NC
CH3-3,2017-01-31T05:00:00Z,-79.12,54.04,2,2.10,,-0.30,,, NC,, NC
CH3-3,2017-01-31T05:15:00Z,-79.12,54.04,2,2.10,,-0.28,,, NC,, NC
CH3-3,2017-01-31T05:30:00Z,-79.12,54.04,2,2.11,,-0.30,,, NC,, NC
CH3-3,2017-01-31T05:45:00Z,-79.12,54.04,2,2.10,,-0.30,,, NC,, NC
CH3-3,2017-01-31T06:00:00Z,-79.12,54.04,2,2.09,,-0.30,,, NC,, NC
CH3-3,2017-01-31T06:15:00Z,-79.12,54.04,2,2.09,,-0.28,,, NC,, NC
CH3-3,2017-01-31T06:30:00Z,-79.12,54.04,2,2.12,,-0.30,,, NC,, NC
CH3-3,2017-01-31T06:45:00Z,-79.12,54.04,2,2.11,,-0.28,,, NC,, NC
CH3-3,2017-01-31T07:00:00Z,-79.12,54.04,2,2.10,,-0.28,,, NC,, NC
CH3-3,2017-01-31T07:15:00Z,-79.12,54.04,2,2.11,,-0.30,,, NC,, NC
CH3-3,2017-01-31T07:30:00Z,-79.12,54.04,2,2.12,,-0.28,,, NC,, NC
CH3-3,2017-01-31T07:45:00Z,-79.12,54.04,2,2.13,,-0.30,,, NC,, NC
CH3-3,2017-01-31T08:00:00Z,-79.12,54.04,2,2.13,,-0.28,,, NC,, NC
CH3-3,2017-01-31T08:15:00Z,-79.12,54.04,2,2.14,,-0.28,,, NC,, NC
CH3-3,2017-01-31T08:30:00Z,-79.12,54.04,2,2.13,,-0.28,,, NC,, NC
CH3-3,2017-01-31T08:45:00Z,-79.12,54.04,2,2.13,,-0.28,,, NC,, NC
CH3-3,2017-01-31T09:00:00Z,-79.12,54.04,2,2.12,,-0.28,,, NC,, NC
CH3-3,2017-01-31T09:15:00Z,-79.12,54.04,2,2.10,,-0.28,,, NC,, NC
CH3-3,2017-01-31T09:30:00Z,-79.12,54.04,2,2.12,,-0.28,,, NC,, NC
CH3-3,2017-01-31T09:45:00Z,-79.12,54.04,2,2.09,,-0.30,,, NC,, NC
CH3-3,2017-01-31T10:00:00Z,-79.12,54.04,2,2.08,,-0.30,,, NC,, NC
CH3-3,2017-01-31T10:15:00Z,-79.12,54.04,2,2.08,,-0.28,,, NC,, NC
CH3-3,2017-01-31T10:30:00Z,-79.12,54.04,2,2.07,,-0.30,,, NC,, NC
CH3-3,2017-01-31T10:45:00Z,-79.12,54.04,2,2.07,,-0.28,,, NC,, NC
CH3-3,2017-01-31T11:00:00Z,-79.12,54.04,2,2.09,,-0.28,,, NC,, NC
CH3-3,2017-01-31T11:15:00Z,-79.12,54.04,2,2.12,,-0.30,,, NC,, NC
CH3-3,2017-01-31T11:30:00Z,-79.12,54.04,2,2.15,,-0.30,,, NC,, NC
CH3-3,2017-01-31T11:45:00Z,-79.12,54.04,2,2.17,,-0.30,,, NC,, NC
CH3-3,2017-01-31T12:00:00Z,-79.12,54.04,2,2.18,,-0.30,,, NC,, NC
CH3-3,2017-01-31T12:15:00Z,-79.12,54.04,2,2.17,,-0.31,,, NC,, NC
CH3-3,2017-01-31T12:30:00Z,-79.12,54.04,2,2.10,,-0.28,,, NC,, NC
CH3-3,2017-01-31T12:45:00Z,-79.12,54.04,2,2.06,,-0.28,,, NC,, NC
CH3-3,2017-01-31T13:00:00Z,-79.12,54.04,2,2.07,,-0.30,,, NC,, NC
CH3-3,2017-01-31T13:15:00Z,-79.12,54.04,2,2.10,,-0.30,,, NC,, NC
CH3-3,2017-01-31T13:30:00Z,-79.12,54.04,2,2.18,,-0.28,,, NC,, NC
CH3-3,2017-01-31T13:45:00Z,-79.12,54.04,2,2.27,,-0.30,,, NC,, NC
CH3-3,2017-01-31T14:00:00Z,-79.12,54.04,2,2.31,,-0.30,,, NC,, NC
CH3-3,2017-01-31T14:15:00Z,-79.12,54.04,2,2.42,,-0.30,,, NC,, NC
CH3-3,2017-01-31T14:30:00Z,-79.12,54.04,2,2.20,,-0.30,,, NC,, NC
CH3-3,2017-01-31T14:45:00Z,-79.12,54.04,2,2.19,,-0.30,,, NC,, NC
CH3-3,2017-01-31T15:00:00Z,-79.12,54.04,2,2.15,,-0.30,,, NC,, NC
CH3-3,2017-01-31T15:15:00Z,-79.12,54.04,2,2.34,,-0.31,,, NC,, NC
CH3-3,2017-01-31T15:30:00Z,-79.12,54.04,2,2.26,,-0.30,,, NC,, NC
CH3-3,2017-01-31T15:45:00Z,-79.12,54.04,2,2.20,,-0.30,,, NC,, NC
CH3-3,2017-01-31T16:00:00Z,-79.12,54.04,2,2.16,,-0.30,,, NC,, NC
CH3-3,2017-01-31T16:15:00Z,-79.12,54.04,2,2.14,,-0.30,,, NC,, NC
CH3-3,2017-01-31T16:30:00Z,-79.12,54.04,2,2.14,,-0.30,,, NC,, NC
CH3-3,2017-01-31T16:45:00Z,-79.12,54.04,2,2.13,,-0.30,,, NC,, NC
CH3-3,2017-01-31T17:00:00Z,-79.12,54.04,2,2.13,,-0.31,,, NC,, NC
CH3-3,2017-01-31T17:15:00Z,-79.12,54.04,2,2.13,,-0.30,,, NC,, NC
CH3-3,2017-01-31T17:30:00Z,-79.12,54.04,2,2.13,,-0.30,,, NC,, NC
CH3-3,2017-01-31T17:45:00Z,-79.12,54.04,2,2.13,,-0.30,,, NC,, NC
CH3-3,2017-01-31T18:00:00Z,-79.12,54.04,2,2.13,,-0.30,,, NC,, NC
CH3-3,2017-01-31T18:15:00Z,-79.12,54.04,2,2.13,,-0.30,,, NC,, NC
CH3-3,2017-01-31T18:30:00Z,-79.12,54.04,2,2.10,,-0.28,,, NC,, NC
CH3-3,2017-01-31T18:45:00Z,-79.12,54.04,2,2.11,,-0.30,,, NC,, NC
CH3-3,2017-01-31T19:00:00Z,-79.12,54.04,2,2.12,,-0.30,,, NC,, NC
CH3-3,2017-01-31T19:15:00Z,-79.12,54.04,2,2.14,,-0.30,,, NC,, NC
CH3-3,2017-01-31T19:30:00Z,-79.12,54.04,2,2.14,,-0.30,,, NC,, NC
CH3-3,2017-01-31T19:45:00Z,-79.12,54.04,2,2.15,,-0.31,,, NC,, NC
CH3-3,2017-01-31T20:00:00Z,-79.12,54.04,2,2.15,,-0.30,,, NC,, NC
CH3-3,2017-01-31T20:15:00Z,-79.12,54.04,2,2.16,,-0.30,,, NC,, NC
CH3-3,2017-01-31T20:30:00Z,-79.12,54.04,2,2.16,,-0.30,,, NC,, NC
CH3-3,2017-01-31T20:45:00Z,-79.12,54.04,2,2.17,,-0.30,,, NC,, NC
CH3-3,2017-01-31T21:00:00Z,-79.12,54.04,2,2.16,,-0.28,,, NC,, NC
CH3-3,2017-01-31T21:15:00Z,-79.12,54.04,2,2.16,,-0.30,,, NC,, NC
CH3-3,2017-01-31T21:30:00Z,-79.12,54.04,2,2.15,,-0.30,,, NC,, NC
CH3-3,2017-01-31T21:45:00Z,-79.12,54.04,2,2.16,,-0.30,,, NC,, NC
CH3-3,2017-01-31T22:00:00Z,-79.12,54.04,2,2.16,,-0.30,,, NC,, NC
CH3-3,2017-01-31T22:15:00Z,-79.12,54.04,2,2.17,,-0.30,,, NC,, NC
CH3-3,2017-01-31T22:30:00Z,-79.12,54.04,2,2.16,,-0.30,,, NC,, NC
CH3-3,2017-01-31T22:45:00Z,-79.12,54.04,2,2.16,,-0.30,,, NC,, NC
CH3-3,2017-01-31T23:00:00Z,-79.12,54.04,2,2.17,,-0.28,,, NC,, NC
CH3-3,2017-01-31T23:15:00Z,-79.12,54.04,2,2.16,,-0.30,,, NC,, NC
CH3-3,2017-01-31T23:30:00Z,-79.12,54.04,2,2.15,,-0.30,,, NC,, NC
CH3-3,2017-01-31T23:45:00Z,-79.12,54.04,2,2.15,,-0.30,,, NC,, NC
CH3-3,2017-02-01T00:00:00Z,-79.12,54.04,2,2.16,,-0.30,,, NC,, NC
CH3-3,2017-02-01T00:15:00Z,-79.12,54.04,2,2.20,,-0.30,,, NC,, NC
CH3-3,2017-02-01T00:30:00Z,-79.12,54.04,2,2.11,,-0.30,,, NC,, NC
CH3-3,2017-02-01T00:45:00Z,-79.12,54.04,2,2.16,,-0.31,,, NC,, NC
CH3-3,2017-02-01T01:00:00Z,-79.12,54.04,2,2.16,,-0.30,,, NC,, NC
CH3-3,2017-02-01T01:15:00Z,-79.12,54.04,2,2.14,,-0.30,,, NC,, NC
CH3-3,2017-02-01T01:30:00Z,-79.12,54.04,2,2.14,,-0.28,,, NC,, NC
CH3-3,2017-02-01T01:45:00Z,-79.12,54.04,2,2.24,,-0.30,,, NC,, NC
CH3-3,2017-02-01T02:00:00Z,-79.12,54.04,2,2.31,,-0.30,,, NC,, NC
CH3-3,2017-02-01T02:15:00Z,-79.12,54.04,2,2.25,,-0.31,,, NC,, NC
CH3-3,2017-02-01T02:30:00Z,-79.12,54.04,2,2.27,,-0.30,,, NC,, NC
CH3-3,2017-02-01T02:45:00Z,-79.12,54.04,2,2.25,,-0.30,,, NC,, NC
CH3-3,2017-02-01T03:00:00Z,-79.12,54.04,2,2.30,,-0.31,,, NC,, NC
CH3-3,2017-02-01T03:15:00Z,-79.12,54.04,2,2.35,,-0.31,,, NC,, NC
CH3-3,2017-02-01T03:30:00Z,-79.12,54.04,2,2.27,,-0.31,,, NC,, NC
CH3-3,2017-02-01T03:45:00Z,-79.12,54.04,2,2.23,,-0.30,,, NC,, NC
CH3-3,2017-02-01T04:00:00Z,-79.12,54.04,2,2.21,,-0.31,,, NC,, NC
CH3-3,2017-02-01T04:15:00Z,-79.12,54.04,2,2.19,,-0.31,,, NC,, NC
CH3-3,2017-02-01T04:30:00Z,-79.12,54.04,2,2.19,,-0.30,,, NC,, NC
CH3-3,2017-02-01T04:45:00Z,-79.12,54.04,2,2.18,,-0.31,,, NC,, NC
CH3-3,2017-02-01T05:00:00Z,-79.12,54.04,2,2.18,,-0.30,,, NC,, NC
CH3-3,2017-02-01T05:15:00Z,-79.12,54.04,2,2.18,,-0.30,,, NC,, NC
CH3-3,2017-02-01T05:30:00Z,-79.12,54.04,2,2.19,,-0.31,,, NC,, NC
CH3-3,2017-02-01T05:45:00Z,-79.12,54.04,2,2.18,,-0.30,,, NC,, NC
CH3-3,2017-02-01T06:00:00Z,-79.12,54.04,2,2.18,,-0.30,,, NC,, NC
CH3-3,2017-02-01T06:15:00Z,-79.12,54.04,2,2.18,,-0.31,,, NC,, NC
CH3-3,2017-02-01T06:30:00Z,-79.12,54.04,2,2.18,,-0.30,,, NC,, NC
CH3-3,2017-02-01T06:45:00Z,-79.12,54.04,2,2.18,,-0.30,,, NC,, NC
CH3-3,2017-02-01T07:00:00Z,-79.12,54.04,2,2.18,,-0.30,,, NC,, NC
CH3-3,2017-02-01T07:15:00Z,-79.12,54.04,2,2.18,,-0.31,,, NC,, NC
CH3-3,2017-02-01T07:30:00Z,-79.12,54.04,2,2.19,,-0.30,,, NC,, NC
CH3-3,2017-02-01T07:45:00Z,-79.12,54.04,2,2.19,,-0.30,,, NC,, NC
CH3-3,2017-02-01T08:00:00Z,-79.12,54.04,2,2.19,,-0.30,,, NC,, NC
CH3-3,2017-02-01T08:15:00Z,-79.12,54.04,2,2.19,,-0.30,,, NC,, NC
CH3-3,2017-02-01T08:30:00Z,-79.12,54.04,2,2.19,,-0.30,,, NC,, NC
CH3-3,2017-02-01T08:45:00Z,-79.12,54.04,2,2.19,,-0.30,,, NC,, NC
CH3-3,2017-02-01T09:00:00Z,-79.12,54.04,2,2.19,,-0.31,,, NC,, NC
CH3-3,2017-02-01T09:15:00Z,-79.12,54.04,2,2.20,,-0.30,,, NC,, NC
CH3-3,2017-02-01T09:30:00Z,-79.12,54.04,2,2.19,,-0.31,,, NC,, NC
CH3-3,2017-02-01T09:45:00Z,-79.12,54.04,2,2.20,,-0.30,,, NC,, NC
CH3-3,2017-02-01T10:00:00Z,-79.12,54.04,2,2.20,,-0.30,,, NC,, NC
CH3-3,2017-02-01T10:15:00Z,-79.12,54.04,2,2.19,,-0.30,,, NC,, NC
CH3-3,2017-02-01T10:30:00Z,-79.12,54.04,2,2.20,,-0.30,,, NC,, NC
CH3-3,2017-02-01T10:45:00Z,-79.12,54.04,2,2.20,,-0.30,,, NC,, NC
CH3-3,2017-02-01T11:00:00Z,-79.12,54.04,2,2.19,,-0.30,,, NC,, NC
CH3-3,2017-02-01T11:15:00Z,-79.12,54.04,2,2.20,,-0.30,,, NC,, NC
CH3-3,2017-02-01T11:30:00Z,-79.12,54.04,2,2.20,,-0.30,,, NC,, NC
CH3-3,2017-02-01T11:45:00Z,-79.12,54.04,2,2.19,,-0.31,,, NC,, NC
CH3-3,2017-02-01T12:00:00Z,-79.12,54.04,2,2.21,,-0.31,,, NC,, NC
CH3-3,2017-02-01T12:15:00Z,-79.12,54.04,2,2.23,,-0.31,,, NC,, NC
CH3-3,2017-02-01T12:30:00Z,-79.12,54.04,2,2.24,,-0.30,,, NC,, NC
CH3-3,2017-02-01T12:45:00Z,-79.12,54.04,2,2.26,,-0.31,,, NC,, NC
CH3-3,2017-02-01T13:00:00Z,-79.12,54.04,2,2.20,,-0.30,,, NC,, NC
CH3-3,2017-02-01T13:15:00Z,-79.12,54.04,2,2.23,,-0.30,,, NC,, NC
CH3-3,2017-02-01T13:30:00Z,-79.12,54.04,2,2.24,,-0.30,,, NC,, NC
CH3-3,2017-02-01T13:45:00Z,-79.12,54.04,2,2.21,,-0.30,,, NC,, NC
CH3-3,2017-02-01T14:00:00Z,-79.12,54.04,2,2.22,,-0.31,,, NC,, NC
CH3-3,2017-02-01T14:15:00Z,-79.12,54.04,2,2.25,,-0.30,,, NC,, NC
CH3-3,2017-02-01T14:30:00Z,-79.12,54.04,2,2.46,,-0.32,,, NC,, NC
CH3-3,2017-02-01T14:45:00Z,-79.12,54.04,2,2.57,,-0.31,,, NC,, NC
CH3-3,2017-02-01T15:00:00Z,-79.12,54.04,2,2.44,,-0.32,,, NC,, NC
CH3-3,2017-02-01T15:15:00Z,-79.12,54.04,2,2.50,,-0.32,,, NC,, NC
CH3-3,2017-02-01T15:30:00Z,-79.12,54.04,2,2.33,,-0.31,,, NC,, NC
CH3-3,2017-02-01T15:45:00Z,-79.12,54.04,2,2.29,,-0.31,,, NC,, NC
CH3-3,2017-02-01T16:00:00Z,-79.12,54.04,2,2.27,,-0.31,,, NC,, NC
CH3-3,2017-02-01T16:15:00Z,-79.12,54.04,2,2.26,,-0.31,,, NC,, NC
CH3-3,2017-02-01T16:30:00Z,-79.12,54.04,2,2.26,,-0.31,,, NC,, NC
CH3-3,2017-02-01T16:45:00Z,-79.12,54.04,2,2.25,,-0.31,,, NC,, NC
CH3-3,2017-02-01T17:00:00Z,-79.12,54.04,2,2.24,,-0.31,,, NC,, NC
CH3-3,2017-02-01T17:15:00Z,-79.12,54.04,2,2.25,,-0.31,,, NC,, NC
CH3-3,2017-02-01T17:30:00Z,-79.12,54.04,2,2.25,,-0.31,,, NC,, NC
CH3-3,2017-02-01T17:45:00Z,-79.12,54.04,2,2.25,,-0.31,,, NC,, NC
CH3-3,2017-02-01T18:00:00Z,-79.12,54.04,2,2.26,,-0.31,,, NC,, NC